This is the latest recevied weather packets stored in our database for station/object SP4MAZ-13. If no packets are shown the sender has not sent any weather packets the latest 10 day(s).
| Time | Temp. | Humidity | Pressure | Rain* | Wind** | Luminosity | Snow |
|---|---|---|---|---|---|---|---|
| 1777844059 | 7.78° C | 69% | 2147.4 hPa | - | - | - | - |
| 1777843452 | 8.33° C | 73% | 2147.4 hPa | - | - | - | - |
| 1777842845 | 8.33° C | 67% | 2147.4 hPa | - | - | - | - |
| 1777840722 | 8.89° C | 68% | 2147.4 hPa | - | - | - | - |
| 1777840115 | 9.44° C | 64% | 2147.4 hPa | - | - | - | - |
| 1777839812 | 9.44° C | 65% | 2147.4 hPa | - | - | - | - |
| 1777839206 | 9.44° C | 67% | 2147.4 hPa | - | - | - | - |
| 1777838601 | 9.44° C | 66% | 2147.4 hPa | - | - | - | - |
| 1777837086 | 10° C | 65% | 2147.4 hPa | - | - | - | - |
| 1777835872 | 11.11° C | 60% | 2147.4 hPa | - | - | - | - |
| 1777834658 | 11.67° C | 60% | 2147.4 hPa | - | - | - | - |
| 1777834357 | 11.67° C | 59% | 2147.4 hPa | - | - | - | - |
| 1777834054 | 11.67° C | 58% | 2147.4 hPa | - | - | - | - |
| 1777833447 | 12.22° C | 58% | 2147.4 hPa | - | - | - | - |
| 1777833143 | 12.78° C | 57% | 2147.4 hPa | - | - | - | - |
| 1777832840 | 13.33° C | 55% | 2147.4 hPa | - | - | - | - |
| 1777832536 | 13.33° C | 52% | 2147.4 hPa | - | - | - | - |
| 1777832233 | 14.44° C | 51% | 2147.4 hPa | - | - | - | - |
| 1777831929 | 15° C | 48% | 2147.4 hPa | - | - | - | - |
| 1777831019 | 16.11° C | 38% | 2147.4 hPa | - | - | - | - |
| 1777830109 | 17.22° C | 37% | 2147.4 hPa | - | - | - | - |
| 1777829805 | 18.33° C | 37% | 2147.4 hPa | - | - | - | - |
| 1777828894 | 19.44° C | 33% | 2147.4 hPa | - | - | - | - |
| 1777827984 | 21.11° C | 29% | 2147.4 hPa | - | - | - | - |
| 1777827680 | 21.67° C | 29% | 2147.4 hPa | - | - | - | - |
* Rain since midnight (hover to see other rain measurements)
** Current wind speed in m/s (hover to see current wind gust speed)